Atka, AK

7:01 AM HDT on April 19, 2018 (GMT -0900)
Atka

Weather History for PAAK - February, 2013

Change the Weather History Date:

Thursday, February 28, 2013

  Actual Average (PADK) Record (PADK)
Temperature  
Mean Temperature 30 °F -  
Max Temperature 33 °F 38 °F 47 °F (1962)
Min Temperature 26 °F 29 °F 11 °F (1957)
Degree Days  
Heating Degree Days 36    
Moisture  
Dew Point 21 °F    
Average Humidity 68    
Maximum Humidity 86    
Minimum Humidity 55    
Precipitation  
Precipitation 0.00 in - - ()
Sea Level Pressure  
Sea Level Pressure 29.87 in    
Wind  
Wind Speed 9 mph (West)    
Max Wind Speed 21 mph    
Max Gust Speed 25 mph    
Visibility 10 miles    
Events      
Averages and records for this station are not official NWS values.
T = Trace of Precipitation, MM = Missing Value Source: NWS Daily Summary

Daily Weather History Graph

Daily Weather History Graph

Search for Another Location

Airport or City:

Astronomy

Feb. 28, 2013 Rise Set
Actual Time 8:23 AM HST 7:15 PM HST
Civil Twilight 7:49 AM HST 7:49 PM HST
Nautical Twilight 7:10 AM HST 8:28 PM HST
Astronomical Twilight 6:31 AM HST 9:08 PM HST
Moon 11:34 PM HST (2/28) 9:11 AM HST (2/28)
Length of Visible Light 11h 59m
Length of Day
10h 51m
Waning Gibbous, 89% of the Moon is Illuminated
Feb 28
Waning Gibbous
Mar 4
Last Quarter
Mar 11
New
Mar 19
First Quarter
Mar 27
Full

Hourly Weather History & Observations

Time (HST) Temp. Windchill Dew Point Humidity Pressure Visibility Wind Dir Wind Speed Gust Speed Precip Events Conditions
12:16 AM - - - N/A% 29.76 in 10.0 mi NNW 20.7 mph 25.3 mph N/A   Overcast
12:36 AM 30.2 °F 18.5 °F 19.4 °F 64% 29.77 in 10.0 mi NNW 17.3 mph 21.9 mph N/A   Overcast
12:56 AM 32.0 °F 22.5 °F 19.4 °F 60% 29.79 in 10.0 mi NNW 12.7 mph - N/A   Overcast
1:16 AM 32.0 °F 23.0 °F 17.6 °F 55% 29.79 in 10.0 mi NNW 11.5 mph - N/A   Overcast
1:36 AM 32.0 °F 22.5 °F 19.4 °F 60% 29.80 in 10.0 mi NNW 12.7 mph - N/A   Overcast
1:56 AM 32.0 °F 23.0 °F 19.4 °F 60% 29.81 in 10.0 mi NNW 11.5 mph - N/A   Overcast
2:16 AM 32.0 °F 22.1 °F 19.4 °F 60% 29.81 in 10.0 mi NNW 13.8 mph 20.7 mph N/A   Mostly Cloudy
2:36 AM 30.2 °F 20.2 °F 19.4 °F 64% 29.83 in 10.0 mi NNW 12.7 mph - N/A   Overcast
2:56 AM 32.0 °F 22.1 °F 19.4 °F 60% 29.83 in 10.0 mi North 13.8 mph - N/A   Overcast
3:16 AM 30.2 °F 20.8 °F 19.4 °F 64% 29.84 in 10.0 mi NNW 11.5 mph - N/A   Overcast
3:36 AM 30.2 °F 20.8 °F 19.4 °F 64% 29.84 in 10.0 mi NW 11.5 mph - N/A   Overcast
3:56 AM 30.2 °F 23.4 °F 19.4 °F 64% 29.85 in 10.0 mi NNW 6.9 mph - N/A   Overcast
4:16 AM 30.2 °F 21.3 °F 19.4 °F 64% 29.85 in 10.0 mi NNW 10.4 mph - N/A   Overcast
4:36 AM 30.2 °F 25.4 °F 21.2 °F 69% 29.86 in 10.0 mi NW 4.6 mph - N/A   Overcast
4:56 AM 30.2 °F 24.3 °F 21.2 °F 69% 29.86 in 10.0 mi NW 5.8 mph - N/A   Overcast
5:16 AM 28.4 °F 22.2 °F 19.4 °F 69% 29.87 in 10.0 mi NW 5.8 mph - N/A   Overcast
5:36 AM 30.2 °F 22.6 °F 19.4 °F 64% 29.88 in 10.0 mi WNW 8.1 mph - N/A   Overcast
5:56 AM 30.2 °F 26.7 °F 19.4 °F 64% 29.89 in 10.0 mi NNW 3.5 mph - N/A   Overcast
6:16 AM 30.2 °F - 21.2 °F 69% 29.88 in 10.0 mi Calm Calm - N/A   Overcast
6:36 AM 28.4 °F 23.3 °F 19.4 °F 69% 29.89 in 10.0 mi NNW 4.6 mph - N/A   Mostly Cloudy
6:56 AM 26.6 °F 21.2 °F 17.6 °F 69% 29.90 in 10.0 mi NW 4.6 mph - N/A   Partly Cloudy
7:16 AM 26.6 °F 22.6 °F 17.6 °F 69% 29.90 in 10.0 mi NNW 3.5 mph - N/A   Partly Cloudy
7:36 AM 26.6 °F - 15.8 °F 64% 29.91 in 10.0 mi Calm Calm - N/A   Scattered Clouds
7:56 AM 26.6 °F 22.6 °F 17.6 °F 69% 29.91 in 10.0 mi NNW 3.5 mph - N/A   Scattered Clouds
8:16 AM 26.6 °F 22.6 °F 17.6 °F 69% 29.92 in 10.0 mi NNW 3.5 mph - N/A   Scattered Clouds
8:36 AM 28.4 °F - 17.6 °F 64% 29.92 in 10.0 mi Calm Calm - N/A   Mostly Cloudy
8:56 AM 28.4 °F 24.6 °F 17.6 °F 64% 29.92 in 10.0 mi NNW 3.5 mph - N/A   Mostly Cloudy
9:16 AM 26.6 °F - 15.8 °F 64% 29.93 in 10.0 mi Calm Calm - N/A   Mostly Cloudy
9:36 AM 26.6 °F - 17.6 °F 69% 29.93 in 10.0 mi Calm Calm - N/A   Partly Cloudy
9:56 AM 28.4 °F - 17.6 °F 64% 29.93 in 10.0 mi Calm Calm - N/A   Clear
10:16 AM 26.6 °F - 17.6 °F 69% 29.94 in 10.0 mi Calm Calm - N/A   Partly Cloudy
10:36 AM 28.4 °F - 19.4 °F 69% 29.94 in 10.0 mi Calm Calm - N/A   Partly Cloudy
10:56 AM 28.4 °F - 19.4 °F 69% 29.94 in 10.0 mi Calm Calm - N/A   Clear
11:36 AM 28.4 °F - 17.6 °F 64% 29.94 in 10.0 mi Calm Calm - N/A   Clear
11:56 AM 28.4 °F - 19.4 °F 69% 29.94 in 10.0 mi Calm Calm - N/A   Clear
12:16 PM 30.2 °F - 19.4 °F 64% 29.94 in 10.0 mi Calm Calm - N/A   Clear
12:36 PM 32.0 °F - 17.6 °F 55% 29.94 in 10.0 mi Calm Calm - N/A   Clear
12:56 PM 32.0 °F 28.7 °F 19.4 °F 60% 29.94 in 10.0 mi SSW 3.5 mph - N/A   Clear
1:16 PM 32.0 °F - 19.4 °F 60% 29.94 in 10.0 mi Calm Calm - N/A   Clear
1:36 PM 33.8 °F - 21.2 °F 60% 29.93 in 10.0 mi Calm Calm - N/A   Clear
1:56 PM 30.2 °F 23.4 °F 19.4 °F 64% 29.92 in 10.0 mi South 6.9 mph - N/A   Partly Cloudy
2:16 PM 32.0 °F 27.5 °F 21.2 °F 64% 29.92 in 10.0 mi South 4.6 mph - N/A   Mostly Cloudy
2:36 PM 33.8 °F 27.0 °F 21.2 °F 60% 29.91 in 9.0 mi South 8.1 mph - N/A   Mostly Cloudy
2:56 PM 33.8 °F 27.0 °F 21.2 °F 60% 29.91 in 10.0 mi SSE 8.1 mph - N/A   Partly Cloudy
3:16 PM 33.8 °F 27.7 °F 21.2 °F 60% 29.90 in 10.0 mi SE 6.9 mph - N/A   Mostly Cloudy
3:36 PM 33.8 °F 27.0 °F 21.2 °F 60% 29.89 in 10.0 mi SE 8.1 mph - N/A   Overcast
3:56 PM 32.0 °F 21.6 °F 26.6 °F 80% 29.90 in 1.0 mi SSW 15.0 mph 21.9 mph N/A   Overcast
4:16 PM 32.0 °F 23.6 °F 26.6 °F 80% 29.89 in 7.0 mi SSE 10.4 mph - N/A   Mostly Cloudy
4:36 PM 32.0 °F 25.6 °F 24.8 °F 75% 29.89 in 10.0 mi SE 6.9 mph - N/A   Overcast
4:56 PM 32.0 °F 26.4 °F 26.6 °F 80% 29.88 in 2.5 mi SE 5.8 mph - N/A   Overcast
5:16 PM 32.0 °F 23.6 °F 24.8 °F 75% 29.88 in 10.0 mi SSW 10.4 mph - N/A   Scattered Clouds
5:36 PM 30.2 °F 20.8 °F 23.0 °F 75% 29.87 in 10.0 mi SSW 11.5 mph - N/A   Clear
5:56 PM 30.2 °F 23.4 °F 24.8 °F 80% 29.87 in 10.0 mi SW 6.9 mph - N/A   Clear
6:16 PM 30.2 °F 21.9 °F 23.0 °F 75% 29.87 in 10.0 mi SSW 9.2 mph - N/A   Clear
6:36 PM 30.2 °F 19.3 °F 24.8 °F 80% 29.87 in 2.5 mi SSW 15.0 mph - N/A   Mostly Cloudy
6:56 PM 30.2 °F 24.3 °F 24.8 °F 80% 29.86 in 10.0 mi SW 5.8 mph - N/A   Mostly Cloudy
7:16 PM 28.4 °F 22.2 °F 23.0 °F 80% 29.86 in 10.0 mi SSW 5.8 mph - N/A   Partly Cloudy
7:36 PM 28.4 °F - 24.8 °F 86% 29.86 in 10.0 mi Calm Calm - N/A   Partly Cloudy
7:56 PM 28.4 °F - 23.0 °F 80% 29.85 in 10.0 mi Calm Calm - N/A   Partly Cloudy
8:16 PM 28.4 °F - 23.0 °F 80% 29.85 in 10.0 mi Calm Calm - N/A   Partly Cloudy
8:36 PM 28.4 °F - 23.0 °F 80% 29.85 in 10.0 mi Calm Calm - N/A   Clear
8:56 PM 28.4 °F - 21.2 °F 74% 29.84 in 10.0 mi Calm Calm - N/A   Clear
9:16 PM 30.2 °F 23.4 °F 21.2 °F 69% 29.83 in 10.0 mi SSW 6.9 mph - N/A   Clear
9:36 PM 30.2 °F 18.9 °F 24.8 °F 80% 29.83 in 2.5 mi South 16.1 mph - N/A   Mostly Cloudy
9:56 PM 28.4 °F 21.2 °F 23.0 °F 80% 29.82 in 10.0 mi WSW 6.9 mph - N/A   Mostly Cloudy
10:16 PM 30.2 °F 21.9 °F 24.8 °F 80% 29.81 in 10.0 mi South 9.2 mph - N/A   Scattered Clouds
10:36 PM 30.2 °F 23.4 °F 23.0 °F 75% 29.80 in 10.0 mi South 6.9 mph - N/A   Mostly Cloudy
10:56 PM 30.2 °F 25.4 °F 23.0 °F 75% 29.79 in 10.0 mi SSW 4.6 mph - N/A   Overcast
11:16 PM 32.0 °F 23.0 °F 21.2 °F 64% 29.78 in 10.0 mi South 11.5 mph - N/A   Overcast
11:56 PM 33.8 °F 25.3 °F 19.4 °F 56% 29.75 in 10.0 mi SSE 11.5 mph - N/A   Overcast